CEB546 RPMD-RPMD

Flight info

Callsign CEB546
Flight time 0h 32m
Altitude 10000
Route ANKIN3R ANKIN DCT RIMAR RIMAR2R
Aircraft A319/M-SDE3FGHIRWY/LB1

Departure

Time 2026-04-28 16:51
Airport Francisco Bangoy International Airport (RPMD)

Arrival

Time 2026-04-28 17:23
Airport Francisco Bangoy International Airport (RPMD)
Time Latitude Longitude Altitude Speed Heading
2026-04-28 16:46 7.13039 125.64647 103 ft 0 kts 319°
2026-04-28 16:48 7.12948 125.64694 103 ft 0 kts 233°
2026-04-28 16:49 7.12941 125.64686 103 ft 4 kts 231°
2026-04-28 16:49 7.12907 125.64642 103 ft 11 kts 231°
2026-04-28 16:49 7.12841 125.64568 103 ft 16 kts 226°
2026-04-28 16:50 7.12748 125.64471 103 ft 21 kts 220°
2026-04-28 16:50 7.12622 125.64503 103 ft 20 kts 147°
2026-04-28 16:50 7.12575 125.64597 103 ft 11 kts 43°
2026-04-28 16:50 7.12635 125.64668 103 ft 22 kts 50°
2026-04-28 16:51 7.12933 125.65015 104 ft 105 kts 49°
2026-04-28 16:51 7.13570 125.65762 206 ft 161 kts 50°
2026-04-28 16:51 7.14290 125.66605 961 ft 163 kts 49°
2026-04-28 16:51 7.15128 125.67397 1698 ft 174 kts 26°
2026-04-28 16:52 7.16359 125.67527 2400 ft 189 kts 352°
2026-04-28 16:52 7.23390 125.65935 7812 ft 193 kts 348°
2026-04-28 16:52 7.27613 125.65131 10213 ft 217 kts 354°
2026-04-28 16:52 7.29243 125.64966 10135 ft 242 kts 354°
2026-04-28 16:53 7.30997 125.64762 10017 ft 262 kts 353°
2026-04-28 16:53 7.43294 125.63017 10091 ft 284 kts 350°
2026-04-28 16:53 7.45227 125.62553 10075 ft 287 kts 338°
2026-04-28 16:53 7.46973 125.61566 10074 ft 287 kts 321°
2026-04-28 16:54 7.48371 125.60111 10078 ft 287 kts 308°
2026-04-28 16:54 7.66070 125.37000 10063 ft 287 kts 308°
2026-04-28 16:54 7.82206 125.16346 10073 ft 287 kts 308°
2026-04-28 16:54 7.83042 125.15260 10071 ft 287 kts 307°
2026-04-28 16:55 7.92652 125.02739 10075 ft 288 kts 309°
2026-04-28 16:55 7.94185 125.01405 10068 ft 287 kts 330°
2026-04-28 16:55 7.96042 125.00663 10071 ft 287 kts 346°
2026-04-28 16:55 7.98022 125.00418 10071 ft 287 kts
2026-04-28 16:56 8.00004 125.00663 10070 ft 287 kts 14°
2026-04-28 16:56 8.01892 125.01400 10069 ft 287 kts 29°
2026-04-28 16:56 8.03507 125.02562 10068 ft 287 kts 43°
2026-04-28 16:56 8.04805 125.04119 10067 ft 287 kts 58°
2026-04-28 16:57 8.05661 125.05930 10066 ft 287 kts 72°
2026-04-28 16:57 8.06041 125.07904 10065 ft 287 kts 87°
2026-04-28 16:57 8.05916 125.09923 10065 ft 287 kts 101°
2026-04-28 16:57 8.05292 125.11839 10064 ft 287 kts 116°
2026-04-28 16:58 8.04223 125.13519 10064 ft 287 kts 130°
2026-04-28 16:58 8.02748 125.14897 10065 ft 287 kts 145°
2026-04-28 16:58 8.01035 125.15961 10069 ft 287 kts 148°
2026-04-28 16:58 7.99409 125.17133 10069 ft 287 kts 137°
2026-04-28 16:59 7.98085 125.18651 10071 ft 287 kts 123°
2026-04-28 16:59 7.97204 125.20449 10073 ft 287 kts 108°
2026-04-28 16:59 7.96816 125.22433 10074 ft 287 kts 93°
2026-04-28 16:59 7.96725 125.40678 10089 ft 287 kts 89°
2026-04-28 17:00 7.96814 125.46847 10074 ft 287 kts 89°
2026-04-28 17:00 7.96627 125.48850 10066 ft 287 kts 103°
2026-04-28 17:00 7.95928 125.50743 10065 ft 287 kts 118°
2026-04-28 17:00 7.94771 125.52400 10064 ft 287 kts 133°
2026-04-28 17:01 7.93270 125.53689 10064 ft 287 kts 147°
2026-04-28 17:01 7.91465 125.54580 10063 ft 287 kts 161°
2026-04-28 17:01 7.89494 125.54990 10063 ft 287 kts 176°
2026-04-28 17:01 7.87508 125.54894 10064 ft 287 kts 190°
2026-04-28 17:02 7.85545 125.54397 10068 ft 287 kts 196°
2026-04-28 17:02 7.84241 125.54010 10069 ft 287 kts 197°
2026-04-28 17:02 7.60647 125.47007 10061 ft 287 kts 196°
2026-04-28 17:02 7.56980 125.45955 9751 ft 281 kts 196°
2026-04-28 17:03 7.53219 125.44861 8565 ft 281 kts 196°
2026-04-28 17:03 7.51327 125.44308 8013 ft 278 kts 196°
2026-04-28 17:03 7.49487 125.43771 7474 ft 276 kts 196°
2026-04-28 17:04 7.45801 125.42694 6397 ft 271 kts 196°
2026-04-28 17:04 7.38247 125.40487 5555 ft 268 kts 196°
2026-04-28 17:05 7.34607 125.39532 5427 ft 268 kts 185°
2026-04-28 17:05 7.32722 125.39575 5308 ft 268 kts 171°
2026-04-28 17:05 7.30895 125.39928 5187 ft 268 kts 167°
2026-04-28 17:06 7.27247 125.40743 5078 ft 267 kts 167°
2026-04-28 17:06 7.25401 125.41148 5074 ft 267 kts 168°
2026-04-28 17:06 7.19297 125.42452 5044 ft 257 kts 168°
2026-04-28 17:07 7.17578 125.42814 4886 ft 249 kts 168°
2026-04-28 17:07 7.10418 125.44322 4358 ft 237 kts 168°
2026-04-28 17:07 7.06346 125.45330 4043 ft 219 kts 146°
2026-04-28 17:07 7.05431 125.46472 3910 ft 208 kts 112°
2026-04-28 17:08 7.04931 125.47855 3743 ft 210 kts 109°
2026-04-28 17:08 7.03408 125.51679 2873 ft 209 kts 114°
2026-04-28 17:08 7.02771 125.52979 2856 ft 199 kts 108°
2026-04-28 17:08 7.02725 125.54299 2626 ft 185 kts 68°
2026-04-28 17:09 7.03417 125.55196 2503 ft 165 kts 38°
2026-04-28 17:09 7.04347 125.55799 2254 ft 152 kts 32°
2026-04-28 17:09 7.05184 125.56382 2022 ft 139 kts 38°
2026-04-28 17:09 7.05901 125.57011 1820 ft 132 kts 44°
2026-04-28 17:10 7.06572 125.57671 1641 ft 132 kts 45°
2026-04-28 17:10 7.07201 125.58343 1466 ft 131 kts 48°
2026-04-28 17:10 7.07810 125.59041 1289 ft 131 kts 49°
2026-04-28 17:10 7.08412 125.59748 1065 ft 131 kts 49°
2026-04-28 17:11 7.09011 125.60429 865 ft 130 kts 48°
2026-04-28 17:11 7.09622 125.61118 669 ft 130 kts 49°
2026-04-28 17:11 7.10207 125.61805 505 ft 129 kts 50°
2026-04-28 17:11 7.10785 125.62505 389 ft 129 kts 50°
2026-04-28 17:12 7.11375 125.63205 222 ft 128 kts 49°
2026-04-28 17:12 7.11952 125.63884 105 ft 120 kts 50°
2026-04-28 17:12 7.12504 125.64531 504 ft 123 kts 49°
2026-04-28 17:12 7.13055 125.65182 1091 ft 123 kts 50°
2026-04-28 17:13 7.13607 125.65857 1702 ft 125 kts 51°
2026-04-28 17:13 7.14142 125.66545 2316 ft 126 kts 53°
2026-04-28 17:13 7.15748 125.68746 4123 ft 132 kts 55°
2026-04-28 17:13 7.16289 125.69533 4701 ft 142 kts 56°
2026-04-28 17:14 7.16826 125.70355 5405 ft 144 kts 57°
2026-04-28 17:14 7.17349 125.71217 6089 ft 150 kts 65°
2026-04-28 17:14 7.17450 125.72354 6317 ft 183 kts 111°
2026-04-28 17:14 7.16628 125.73296 6555 ft 182 kts 152°
2026-04-28 17:15 7.15378 125.73531 6273 ft 185 kts 192°
2026-04-28 17:15 7.14273 125.72854 5691 ft 193 kts 235°
2026-04-28 17:15 7.13854 125.71566 5050 ft 202 kts 264°
2026-04-28 17:15 7.13715 125.70110 4451 ft 218 kts 264°
2026-04-28 17:16 7.13284 125.66344 3637 ft 223 kts 263°
2026-04-28 17:16 7.13081 125.64790 3890 ft 226 kts 263°
2026-04-28 17:16 7.12866 125.63200 3996 ft 226 kts 257°
2026-04-28 17:16 7.12156 125.61785 4029 ft 224 kts 224°
2026-04-28 17:17 7.10812 125.60995 4061 ft 224 kts 197°
2026-04-28 17:17 7.09254 125.60686 4071 ft 225 kts 185°
2026-04-28 17:17 7.02670 125.60265 4089 ft 226 kts 181°
2026-04-28 17:17 7.01081 125.60233 4079 ft 226 kts 184°
2026-04-28 17:18 6.99582 125.59752 3988 ft 222 kts 220°
2026-04-28 17:18 6.98775 125.58503 3765 ft 207 kts 258°
2026-04-28 17:18 6.98760 125.57110 3558 ft 193 kts 285°
2026-04-28 17:18 6.99306 125.55918 3286 ft 186 kts 309°
2026-04-28 17:19 7.00237 125.55119 3122 ft 169 kts 331°
2026-04-28 17:19 7.01309 125.54778 2898 ft 157 kts 354°
2026-04-28 17:19 7.02366 125.54855 2675 ft 146 kts 12°
2026-04-28 17:19 7.03327 125.55109 2459 ft 137 kts 16°
2026-04-28 17:20 7.04223 125.55402 2174 ft 131 kts 29°
2026-04-28 17:20 7.04716 125.55744 2107 ft 130 kts 40°
2026-04-28 17:20 7.05617 125.56598 1915 ft 132 kts 45°
2026-04-28 17:20 7.06245 125.57262 1741 ft 131 kts 48°
2026-04-28 17:21 7.06860 125.57954 1565 ft 131 kts 49°
2026-04-28 17:21 7.07461 125.58649 1389 ft 131 kts 49°
2026-04-28 17:21 7.08060 125.59348 1213 ft 130 kts 50°
2026-04-28 17:22 7.09243 125.60727 864 ft 129 kts 49°
2026-04-28 17:22 7.09837 125.61419 688 ft 129 kts 49°
2026-04-28 17:22 7.10431 125.62109 512 ft 129 kts 49°
2026-04-28 17:23 7.11605 125.63471 167 ft 127 kts 49°
2026-04-28 17:23 7.12157 125.64113 104 ft 108 kts 50°
2026-04-28 17:23 7.12537 125.64555 104 ft 58 kts 47°
2026-04-28 17:23 7.12761 125.64820 104 ft 42 kts 49°
2026-04-28 17:24 7.12924 125.64885 103 ft 24 kts 314°
2026-04-28 17:24 7.13008 125.64762 103 ft 18 kts 245°
2026-04-28 17:24 7.12981 125.64727 103 ft 0 kts 226°
2026-04-28 17:24 7.12955 125.64700 103 ft 17 kts 227°
2026-04-28 17:25 7.12903 125.64588 103 ft 18 kts 302°
2026-04-28 17:25 7.12953 125.64545 103 ft 0 kts 321°